• In Switzerland
  • List of Countries
  • For 7 days
  • Water Temperature
  • Satellite Maps
  • Weather Map
  • Weather Widgets
  • user-avatar
    Login

    Hourly Weather Serdobyne

    Today, 24 May, Thursday

    Time Temperature Precipitation Wind Pressure Humidity
    00:00 +17°C° 0.2 mm 2 mps 746 mmHg 95%
    01:00 +17°C° 0.2 mm 2 mps 746 mmHg 96%
    02:00 +17°C° 0 mm 2 mps 746 mmHg 96%
    03:00 +17°C° 0 mm 2 mps 746 mmHg 95%
    04:00 +17°C° 0 mm 2 mps 745 mmHg 95%
    05:00 +17°C° 0 mm 3 mps 745 mmHg 94%
    06:00 +19°C° 0 mm 3 mps 745 mmHg 89%
    07:00 +20°C° 0 mm 3 mps 745 mmHg 85%
    08:00 +21°C° 0 mm 3 mps 745 mmHg 81%
    09:00 +22°C° 0.6 mm 3 mps 745 mmHg 79%
    10:00 +22°C° 0.6 mm 4 mps 745 mmHg 77%
    11:00 +23°C° 0.6 mm 4 mps 745 mmHg 74%
    12:00 +22°C° 1.5 mm 4 mps 744 mmHg 76%
    13:00 +22°C° 1.5 mm 4 mps 744 mmHg 78%
    14:00 +22°C° 1.5 mm 4 mps 744 mmHg 80%
    15:00 +21°C° 0.7 mm 4 mps 744 mmHg 82%
    16:00 +21°C° 0.7 mm 4 mps 743 mmHg 84%
    17:00 +20°C° 0.7 mm 4 mps 743 mmHg 86%
    18:00 +19°C° 0 mm 4 mps 743 mmHg 88%
    19:00 +19°C° 0 mm 4 mps 743 mmHg 90%
    20:00 +18°C° 0 mm 4 mps 743 mmHg 92%
    21:00 +18°C° 0.2 mm 4 mps 743 mmHg 93%
    22:00 +17°C° 0.2 mm 4 mps 743 mmHg 94%
    23:00 +17°C° 0.2 mm 4 mps 743 mmHg 94%

    Tomorrow, 25 May, Friday

    Time Temperature Precipitation Wind Pressure Humidity
    00:00 +16°C° 0.1 mm 5 mps 743 mmHg 94%
    01:00 +16°C° 0.1 mm 5 mps 743 mmHg 94%
    02:00 +16°C° 0.1 mm 5 mps 743 mmHg 94%
    03:00 +16°C° 0.1 mm 5 mps 743 mmHg 94%
    04:00 +16°C° 0.1 mm 5 mps 743 mmHg 93%
    05:00 +15°C° 0.1 mm 6 mps 743 mmHg 93%
    06:00 +16°C° 0.1 mm 6 mps 743 mmHg 92%
    07:00 +16°C° 0.1 mm 6 mps 743 mmHg 91%
    08:00 +16°C° 0.1 mm 6 mps 744 mmHg 90%
    09:00 +17°C° 0 mm 6 mps 744 mmHg 87%
    10:00 +18°C° 0 mm 7 mps 744 mmHg 84%
    11:00 +20°C° 0 mm 7 mps 744 mmHg 81%
    12:00 +20°C° 0.2 mm 7 mps 745 mmHg 80%
    13:00 +21°C° 0.2 mm 8 mps 745 mmHg 79%
    14:00 +21°C° 0.2 mm 8 mps 745 mmHg 78%
    15:00 +20°C° 0.1 mm 8 mps 745 mmHg 78%
    16:00 +20°C° 0.1 mm 8 mps 746 mmHg 79%
    17:00 +18°C° 0.1 mm 8 mps 746 mmHg 79%
    18:00 +17°C° 0 mm 8 mps 746 mmHg 78%
    19:00 +16°C° 0 mm 7 mps 747 mmHg 77%
    20:00 +16°C° 0 mm 7 mps 747 mmHg 75%
    21:00 +15°C° 0 mm 8 mps 748 mmHg 72%
    22:00 +13°C° 0 mm 8 mps 748 mmHg 69%
    23:00 +12°C° 0 mm 8 mps 749 mmHg 66%

    Day after tomorrow, 26 May, Saturday

    Time Temperature Precipitation Wind Pressure Humidity
    00:00 +12°C° 0 mm 8 mps 749 mmHg 64%
    01:00 +11°C° 0 mm 8 mps 750 mmHg 62%
    02:00 +10°C° 0 mm 8 mps 750 mmHg 60%
    03:00 +9°C° 0 mm 8 mps 751 mmHg 62%
    04:00 +9°C° 0 mm 7 mps 751 mmHg 64%
    05:00 +8°C° 0 mm 7 mps 752 mmHg 66%
    06:00 +9°C° 0 mm 8 mps 752 mmHg 64%
    07:00 +10°C° 0 mm 8 mps 753 mmHg 61%
    08:00 +11°C° 0 mm 9 mps 753 mmHg 59%
    09:00 +12°C° 0 mm 9 mps 754 mmHg 58%
    10:00 +13°C° 0 mm 9 mps 754 mmHg 57%
    11:00 +15°C° 0 mm 9 mps 754 mmHg 56%
    12:00 +15°C° 0 mm 8 mps 754 mmHg 56%
    13:00 +16°C° 0 mm 8 mps 754 mmHg 56%
    14:00 +16°C° 0 mm 8 mps 754 mmHg 56%
    15:00 +16°C° 0 mm 7 mps 754 mmHg 59%
    16:00 +15°C° 0 mm 7 mps 754 mmHg 62%
    17:00 +15°C° 0 mm 6 mps 754 mmHg 64%
    18:00 +14°C° 0 mm 6 mps 755 mmHg 68%
    19:00 +12°C° 0 mm 5 mps 755 mmHg 72%
    20:00 +11°C° 0 mm 4 mps 755 mmHg 76%
    21:00 +10°C° 0 mm 4 mps 755 mmHg 76%
    22:00 +10°C° 0 mm 4 mps 756 mmHg 77%
    23:00 +8°C° 0 mm 4 mps 756 mmHg 78%

    27 May, Sunday

    Time Temperature Precipitation Wind Pressure Humidity
    00:00 +8°C° 0 mm 4 mps 756 mmHg 79%
    01:00 +7°C° 0 mm 4 mps 756 mmHg 80%
    02:00 +7°C° 0 mm 4 mps 756 mmHg 81%
    03:00 +7°C° 0 mm 4 mps 756 mmHg 80%
    04:00 +7°C° 0 mm 4 mps 756 mmHg 79%
    05:00 +7°C° 0 mm 4 mps 756 mmHg 77%
    06:00 +9°C° 0 mm 5 mps 756 mmHg 72%
    07:00 +10°C° 0 mm 5 mps 756 mmHg 67%
    08:00 +13°C° 0 mm 5 mps 756 mmHg 61%
    09:00 +14°C° 0 mm 5 mps 756 mmHg 59%
    10:00 +15°C° 0 mm 5 mps 755 mmHg 57%
    11:00 +16°C° 0 mm 5 mps 755 mmHg 55%
    12:00 +17°C° 0 mm 5 mps 755 mmHg 55%
    13:00 +17°C° 0 mm 5 mps 755 mmHg 55%
    14:00 +19°C° 0 mm 5 mps 754 mmHg 55%
    15:00 +18°C° 0 mm 4 mps 754 mmHg 58%
    16:00 +18°C° 0 mm 4 mps 754 mmHg 61%
    17:00 +18°C° 0 mm 4 mps 753 mmHg 64%
    18:00 +16°C° 0 mm 3 mps 753 mmHg 69%
    19:00 +14°C° 0 mm 3 mps 753 mmHg 75%
    20:00 +13°C° 0 mm 2 mps 753 mmHg 80%
    21:00 +12°C° 0 mm 2 mps 753 mmHg 82%
    22:00 +12°C° 0 mm 2 mps 753 mmHg 83%
    23:00 +10°C° 0 mm 2 mps 753 mmHg 84%

    28 May, Monday

    Time Temperature Precipitation Wind Pressure Humidity
    00:00 +10°C° 0 mm 2 mps 753 mmHg 85%
    01:00 +9°C° 0 mm 2 mps 753 mmHg 85%
    02:00 +9°C° 0 mm 2 mps 753 mmHg 85%
    03:00 +9°C° 0 mm 2 mps 753 mmHg 85%
    04:00 +10°C° 0 mm 2 mps 753 mmHg 84%
    05:00 +10°C° 0 mm 3 mps 753 mmHg 83%
    06:00 +12°C° 0 mm 3 mps 753 mmHg 77%
    07:00 +14°C° 0 mm 3 mps 753 mmHg 71%
    08:00 +17°C° 0 mm 3 mps 753 mmHg 65%
    09:00 +18°C° 0 mm 3 mps 753 mmHg 61%
    10:00 +19°C° 0 mm 3 mps 753 mmHg 56%
    11:00 +20°C° 0 mm 3 mps 753 mmHg 52%
    12:00 +21°C° 0 mm 3 mps 753 mmHg 52%
    13:00 +21°C° 0 mm 4 mps 753 mmHg 53%
    14:00 +22°C° 0 mm 4 mps 752 mmHg 53%
    15:00 +22°C° 0 mm 4 mps 752 mmHg 57%
    16:00 +22°C° 0 mm 3 mps 752 mmHg 61%
    17:00 +22°C° 0 mm 3 mps 752 mmHg 65%
    18:00 +20°C° 0 mm 3 mps 752 mmHg 71%
    19:00 +18°C° 0 mm 3 mps 753 mmHg 76%
    20:00 +17°C° 0 mm 3 mps 753 mmHg 82%
    21:00 +16°C° 0 mm 3 mps 753 mmHg 82%
    22:00 +14°C° 0 mm 4 mps 754 mmHg 83%
    23:00 +14°C° 0 mm 5 mps 754 mmHg 83%

    29 May, Tuesday

    Time Temperature Precipitation Wind Pressure Humidity
    00:00 +13°C° 0 mm 5 mps 754 mmHg 79%
    01:00 +12°C° 0 mm 5 mps 755 mmHg 75%
    02:00 +11°C° 0 mm 4 mps 755 mmHg 71%
    03:00 +11°C° 0 mm 4 mps 755 mmHg 73%
    04:00 +10°C° 0 mm 4 mps 756 mmHg 74%
    05:00 +10°C° 0 mm 4 mps 756 mmHg 76%
    06:00 +11°C° 0 mm 4 mps 756 mmHg 70%
    07:00 +13°C° 0 mm 5 mps 757 mmHg 65%
    08:00 +15°C° 0 mm 5 mps 757 mmHg 59%
    09:00 +16°C° 0 mm 5 mps 757 mmHg 57%
    10:00 +17°C° 0 mm 5 mps 757 mmHg 55%
    11:00 +19°C° 0 mm 5 mps 757 mmHg 52%
    12:00 +19°C° 0 mm 5 mps 756 mmHg 53%
    13:00 +19°C° 0 mm 5 mps 756 mmHg 53%
    14:00 +20°C° 0 mm 5 mps 756 mmHg 54%
    15:00 +20°C° 0 mm 5 mps 756 mmHg 57%
    16:00 +19°C° 0 mm 4 mps 755 mmHg 60%
    17:00 +19°C° 0 mm 4 mps 755 mmHg 62%
    18:00 +17°C° 0 mm 3 mps 755 mmHg 67%
    19:00 +16°C° 0 mm 3 mps 755 mmHg 72%
    20:00 +14°C° 0 mm 2 mps 755 mmHg 77%
    21:00 +13°C° 0 mm 2 mps 755 mmHg 78%
    22:00 +13°C° 0 mm 2 mps 755 mmHg 80%
    23:00 +12°C° 0 mm 2 mps 755 mmHg 81%
    Show more